Terminal Aerodrome Forecast
Issued by NWS

Home | Current Version | Previous Version | Text Only | Print | Product List | Glossary On
Versions: 1 2 3 4 5 6 7 8 9 10 11 12 13 14 15 16 17 18 19 20 21 22 23 24 25 26 27 28 29 30 31
000
FTUS45 KSLC 212333
TAFPVU
TAF
KPVU 212333Z 2200/2224 VRB05KT P6SM VCSH SCT070 BKN110
     FM220300 14004KT P6SM SCT130
     FM222000 19012KT P6SM SCT100 SCT150
      AMD LTD TO CLD VIS AND WIND=

USA.gov is the U.S. government's official web portal to all federal, state and local government web resources and services.